Location: San Antonio
(29.4240°N, 98.4930°W)
Time: 10:40:30
(UTC-06:00)

Transit 4A - Pass Details

Date: 14 December 2025
Orbit: 867 x 974 km, 66.8° (Epoch: 17 January)

Event Time Altitude Azimuth Distance (km) Brightness Sun altitude
Exits shadow 05:02:23 76° 197° (SSW) 967 7.8 -29.2°
Drops below altitude 10° 05:08:13 10° 161° (SSE) 2,674 10.6 -28.0°
Sets 05:10:47 0° 160° (SSE) 3,629 11.4 -27.4°
